Weather Roundup
Issued by NWS Springfield, MO

Home | Current Version | Previous Version | Text Only | Print | Product List | Glossary On
Versions: 1 2 3 4 5 6 7 8 9 10 11 12 13 14 15 16 17 18 19 20 21 22 23 24 25 26 27 28 29 30 31 32 33 34 35 36 37 38 39 40 41 42 43 44 45 46 47 48 49 50
011
NZUS99 KSGF 300757
HRRSGF

HOURLY WEATHER
NATIONAL WEATHER SERVICE SPRINGFIELD MO
300 AM CDT SAT APR 30 2016

......SGF CWA......

CITY           SKY/WX    TMP DP  RH WIND       PRES   REMARKS
SPRINGFIELD    CLOUDY    62  59  90 E13       29.68F
JOPLIN         CLOUDY    61  60  97 E9        29.61F
WEST PLAINS    RAIN      60  57  89 E8        29.80F FOG
ROLLA          LGT RAIN  57  55  93 E14       29.81F

......SURROUNDING SGF CWA......

CITY           SKY/WX    TMP DP  RH WIND       PRES   REMARKS
CHANUTE        CLOUDY    61  58  90 SE9       29.65S
PARSONS        CLOUDY    63  61  93 CALM      29.66R
COFFEYVILLE    CLOUDY    63  60  90 CALM      29.64S
EMPORIA        CLOUDY    58  57  97 SE9       29.62F
HARRISON AR    RAIN      62  60  93 E12       29.72F FOG

......KANSAS AND MISSOURI......

CITY           SKY/WX    TMP DP  RH WIND       PRES   REMARKS
KANSAS CTY INT FOG       53  51  93 E14       29.70F VSB 1/2
SEDALIA        LGT RAIN  59  57  93 SE18      29.72F
ST JOSEPH      LGT RAIN  51  49  92 E12G23    29.72F FOG
ST LOUIS       LGT RAIN  59  56  89 E10       29.88F FOG
WICHITA        CLOUDY    53  51  93 NW14      29.66F FOG
TOPEKA         LGT RAIN  54  53  97 E14       29.65F FOG
OLATHE         CLOUDY    56  55  97 E7        29.67F

......TENNESSEE......

CITY           SKY/WX    TMP DP  RH WIND       PRES   REMARKS
MEMPHIS        NOT AVBL
NASHVILLE      CLOUDY    65  60  84 CALM      29.91S

......ARKANSAS.......

CITY           SKY/WX    TMP DP  RH WIND       PRES   REMARKS
FAYETTEVILLE   CLOUDY    63  62  97 S5        29.63R
FT SMITH       CLOUDY    65  61  87 E5        29.64R
LITTLE ROCK    TSTM      68  65  90 S14G28    29.75F FOG

......OKLAHOMA.......

CITY           SKY/WX    TMP DP  RH WIND       PRES   REMARKS
TULSA          CLOUDY    65  64  97 S7        29.62F
PONCA CITY     CLOUDY    55  53  93 W9        29.66R
MCALESTER      CLOUDY    65  63  93 CALM      29.66R
OKLAHOMA CITY  CLOUDY    52  51  97 NW15      29.72R

......IOWA............

CITY           SKY/WX    TMP DP  RH WIND       PRES   REMARKS
DES MOINES     NOT AVBL
QUAD CITIES    CLOUDY    47  40  76 E15       29.99F

......ILLINOIS........

CITY           SKY/WX    TMP DP  RH WIND       PRES   REMARKS
QUINCY         NOT AVBL
CHICAGO        CLOUDY    43  38  82 NE8       30.07S




USA.gov is the U.S. government's official web portal to all federal, state and local government web resources and services.